Time,TemperatureF,DewpointF,PressureIn,WindDirection,WindDirectionDegrees,WindSpeedMPH,WindSpeedGustMPH,Humidity,HourlyPrecipIn,Conditions,Clouds,dailyrainin,SoftwareType,DateUTC
2013-06-27 00:12:00,77.0,72.0,-100.00,NNW,330,7.0,10.0,85,0.00,,,-99.99,,2013-06-27 05:12:00,
2013-06-27 00:22:00,77.0,72.0,-100.00,NNW,330,7.0,10.0,85,0.00,,,-99.99,,2013-06-27 05:22:00,
2013-06-27 00:32:00,77.0,72.0,-100.00,NNW,330,7.0,10.0,85,0.00,,,-99.99,,2013-06-27 05:32:00,
2013-06-27 00:42:00,76.0,72.0,-100.00,NNW,340,7.0,11.0,85,0.00,,,-99.99,,2013-06-27 05:42:00,
2013-06-27 00:53:00,76.0,72.0,-100.00,NNW,340,7.0,11.0,85,0.00,,,-99.99,,2013-06-27 05:53:00,
2013-06-27 01:01:00,76.0,72.0,-100.00,NNW,345,6.0,7.0,85,0.00,,,-99.99,,2013-06-27 06:01:00,
2013-06-27 01:12:00,76.0,71.0,-100.00,NNW,340,7.0,10.0,84,0.00,,,-99.99,,2013-06-27 06:12:00,
2013-06-27 01:34:00,76.0,70.0,-100.00,North,355,6.0,9.0,83,0.00,,,-99.99,,2013-06-27 06:34:00,
2013-06-27 01:43:00,75.0,70.0,-100.00,North,0,6.0,9.0,83,0.00,,,-99.99,,2013-06-27 06:43:00,
2013-06-27 01:53:00,75.0,69.0,-100.00,North,355,6.0,9.0,83,0.00,,,-99.99,,2013-06-27 06:53:00,
2013-06-27 02:12:00,74.0,69.0,-100.00,NNW,345,7.0,10.0,83,0.00,,,-99.99,,2013-06-27 07:12:00,
2013-06-27 02:22:00,74.0,69.0,-100.00,NNW,340,7.0,10.0,83,0.00,,,-99.99,,2013-06-27 07:22:00,
2013-06-27 02:33:00,74.0,68.0,-100.00,NNW,335,7.0,10.0,83,0.00,,,-99.99,,2013-06-27 07:33:00,
2013-06-27 02:42:00,73.0,68.0,-100.00,NNW,335,7.0,10.0,83,0.00,,,-99.99,,2013-06-27 07:42:00,
2013-06-27 02:52:00,73.0,68.0,-100.00,NNW,340,6.0,9.0,83,0.00,,,-99.99,,2013-06-27 07:52:00,
2013-06-27 03:01:00,73.0,68.0,-100.00,NNW,340,6.0,9.0,83,0.00,,,-99.99,,2013-06-27 08:01:00,
2013-06-27 03:11:00,73.0,67.0,-100.00,NNW,335,6.0,7.0,83,0.00,,,-99.99,,2013-06-27 08:11:00,
2013-06-27 03:22:00,72.0,67.0,-100.00,NNW,335,5.0,7.0,83,0.00,,,-99.99,,2013-06-27 08:22:00,
2013-06-27 03:34:00,72.0,67.0,-100.00,NNW,335,5.0,7.0,83,0.00,,,-99.99,,2013-06-27 08:34:00,
2013-06-27 03:43:00,72.0,67.0,-100.00,NNW,335,7.0,9.0,83,0.00,,,-99.99,,2013-06-27 08:43:00,
2013-06-27 03:52:00,72.0,67.0,-100.00,NNW,335,7.0,9.0,83,0.00,,,-99.99,,2013-06-27 08:52:00,
2013-06-27 04:02:00,71.0,66.0,-100.00,NNW,335,8.0,10.0,83,0.00,,,-99.99,,2013-06-27 09:02:00,
2013-06-27 04:34:00,71.0,66.0,-100.00,NNW,340,6.0,10.0,83,0.00,,,-99.99,,2013-06-27 09:34:00,
2013-06-27 04:43:00,71.0,66.0,-100.00,NNW,345,6.0,8.0,83,0.00,,,-99.99,,2013-06-27 09:43:00,
2013-06-27 04:53:00,71.0,65.0,-100.00,NNW,345,5.0,7.0,83,0.00,,,-99.99,,2013-06-27 09:53:00,
2013-06-27 05:22:00,70.0,65.0,-100.00,NW,315,4.0,6.0,83,0.00,,,-99.99,,2013-06-27 10:22:00,
2013-06-27 05:32:00,70.0,65.0,-100.00,NNW,335,6.0,9.0,84,0.00,,,-99.99,,2013-06-27 10:32:00,
2013-06-27 05:44:00,70.0,65.0,-100.00,NNW,330,6.0,9.0,84,0.00,,,-99.99,,2013-06-27 10:44:00,
2013-06-27 05:54:00,70.0,65.0,-100.00,NNW,335,6.0,8.0,84,0.00,,,-99.99,,2013-06-27 10:54:00,
2013-06-27 06:02:00,70.0,65.0,-100.00,NNW,335,6.0,8.0,84,0.00,,,-99.99,,2013-06-27 11:02:00,
2013-06-27 06:11:00,70.0,65.0,-100.00,NNW,330,6.0,7.0,84,0.00,,,-99.99,,2013-06-27 11:11:00,
2013-06-27 06:43:00,71.0,66.0,-100.00,NNW,330,5.0,7.0,83,0.00,,,-99.99,,2013-06-27 11:43:00,
2013-06-27 06:52:00,72.0,66.0,-100.00,NNW,330,4.0,6.0,81,0.00,,,-99.99,,2013-06-27 11:52:00,
2013-06-27 07:42:00,75.0,66.0,-100.00,NNW,330,6.0,9.0,73,0.00,,,-99.99,,2013-06-27 12:42:00,
2013-06-27 08:11:00,76.0,66.0,-100.00,NNW,335,6.0,9.0,70,0.00,,,-99.99,,2013-06-27 13:11:00,
2013-06-27 08:34:00,78.0,66.0,-100.00,NNW,335,7.0,10.0,68,0.00,,,-99.99,,2013-06-27 13:34:00,
2013-06-27 08:43:00,79.0,67.0,-100.00,NNW,340,5.0,9.0,66,0.00,,,-99.99,,2013-06-27 13:43:00,
2013-06-27 08:52:00,79.0,67.0,-100.00,North,0,5.0,7.0,65,0.00,,,-99.99,,2013-06-27 13:52:00,
2013-06-27 09:02:00,80.0,66.0,-100.00,NNW,335,7.0,9.0,64,0.00,,,-99.99,,2013-06-27 14:02:00,
2013-06-27 09:11:00,80.0,67.0,-100.00,NNW,340,4.0,9.0,63,0.00,,,-99.99,,2013-06-27 14:11:00,
2013-06-27 09:22:00,81.0,67.0,-100.00,North,355,4.0,7.0,61,0.00,,,-99.99,,2013-06-27 14:22:00,
2013-06-27 09:33:00,82.0,67.0,-100.00,North,0,4.0,7.0,60,0.00,,,-99.99,,2013-06-27 14:33:00,
2013-06-27 09:43:00,83.0,67.0,-100.00,NNW,340,5.0,7.0,58,0.00,,,-99.99,,2013-06-27 14:43:00,
2013-06-27 09:52:00,83.0,67.0,-100.00,NNW,330,6.0,9.0,58,0.00,,,-99.99,,2013-06-27 14:52:00,
2013-06-27 10:12:00,84.0,67.0,-100.00,NNW,335,7.0,9.0,56,0.00,,,-99.99,,2013-06-27 15:12:00,
2013-06-27 10:22:00,84.0,67.0,-100.00,NW,305,8.0,10.0,57,0.00,,,-99.99,,2013-06-27 15:22:00,
2013-06-27 10:33:00,84.0,66.0,-100.00,NNW,330,9.0,12.0,55,0.00,,,-99.99,,2013-06-27 15:33:00,
2013-06-27 10:42:00,84.0,67.0,-100.00,WNW,300,6.0,11.0,56,0.00,,,-99.99,,2013-06-27 15:42:00,
2013-06-27 10:52:00,85.0,68.0,-100.00,WNW,295,7.0,10.0,57,0.00,,,-99.99,,2013-06-27 15:52:00,
2013-06-27 11:02:00,85.0,66.0,-100.00,NNW,335,9.0,13.0,53,0.00,,,-99.99,,2013-06-27 16:02:00,
2013-06-27 11:11:00,85.0,66.0,-100.00,NNW,340,8.0,14.0,52,0.00,,,-99.99,,2013-06-27 16:11:00,
2013-06-27 11:23:00,85.0,65.0,-100.00,NNW,340,7.0,11.0,51,0.00,,,-99.99,,2013-06-27 16:23:00,
2013-06-27 11:34:00,85.0,65.0,-100.00,NNW,330,7.0,15.0,50,0.00,,,-99.99,,2013-06-27 16:34:00,
2013-06-27 11:43:00,86.0,65.0,-100.00,NW,305,9.0,14.0,50,0.00,,,-99.99,,2013-06-27 16:43:00,
2013-06-27 12:01:00,85.0,65.0,-100.00,NW,305,6.0,14.0,50,0.00,,,-99.99,,2013-06-27 17:01:00,
2013-06-27 12:11:00,87.0,66.0,-100.00,WNW,295,6.0,9.0,49,0.00,,,-99.99,,2013-06-27 17:11:00,
2013-06-27 12:22:00,87.0,65.0,-100.00,WNW,300,7.0,11.0,49,0.00,,,-99.99,,2013-06-27 17:22:00,
2013-06-27 12:33:00,87.0,67.0,-100.00,WNW,300,11.0,14.0,52,0.00,,,-99.99,,2013-06-27 17:33:00,
2013-06-27 12:43:00,87.0,67.0,-100.00,WNW,295,12.0,17.0,51,0.00,,,-99.99,,2013-06-27 17:43:00,
2013-06-27 12:53:00,87.0,66.0,-100.00,NW,305,11.0,16.0,50,0.00,,,-99.99,,2013-06-27 17:53:00,
2013-06-27 13:01:00,86.0,67.0,-100.00,WNW,295,11.0,17.0,52,0.00,,,-99.99,,2013-06-27 18:01:00,
2013-06-27 13:11:00,86.0,66.0,-100.00,WNW,290,12.0,17.0,52,0.00,,,-99.99,,2013-06-27 18:11:00,
2013-06-27 13:22:00,85.0,65.0,-100.00,WNW,285,12.0,16.0,52,0.00,,,-99.99,,2013-06-27 18:22:00,
2013-06-27 13:32:00,85.0,65.0,-100.00,NW,305,16.0,19.0,51,0.00,,,-99.99,,2013-06-27 18:32:00,
2013-06-27 13:44:00,86.0,65.0,-100.00,WNW,300,15.0,22.0,49,0.00,,,-99.99,,2013-06-27 18:44:00,
2013-06-27 13:52:00,87.0,66.0,-100.00,WNW,300,17.0,21.0,49,0.00,,,-99.99,,2013-06-27 18:52:00,
2013-06-27 14:01:00,87.0,65.0,-100.00,WNW,300,17.0,22.0,48,0.00,,,-99.99,,2013-06-27 19:01:00,
2013-06-27 14:11:00,86.0,65.0,-100.00,WNW,300,16.0,21.0,50,0.00,,,-99.99,,2013-06-27 19:11:00,
2013-06-27 14:23:00,87.0,64.0,-100.00,NW,320,16.0,22.0,47,0.00,,,-99.99,,2013-06-27 19:23:00,
2013-06-27 14:34:00,87.0,65.0,-100.00,WNW,300,16.0,25.0,47,0.00,,,-99.99,,2013-06-27 19:34:00,
2013-06-27 14:42:00,87.0,65.0,-100.00,WNW,300,19.0,26.0,48,0.00,,,-99.99,,2013-06-27 19:42:00,
2013-06-27 14:53:00,87.0,64.0,-100.00,NW,310,21.0,30.0,47,0.00,,,-99.99,,2013-06-27 19:53:00,
2013-06-27 15:01:00,86.0,63.0,-100.00,NW,315,12.0,24.0,46,0.00,,,-99.99,,2013-06-27 20:01:00,
2013-06-27 15:11:00,86.0,63.0,-100.00,NW,315,11.0,21.0,46,0.00,,,-99.99,,2013-06-27 20:11:00,
2013-06-27 15:22:00,86.0,63.0,-100.00,NNW,330,16.0,23.0,46,0.00,,,-99.99,,2013-06-27 20:22:00,
2013-06-27 15:36:00,87.0,64.0,-100.00,NNW,335,17.0,22.0,46,0.00,,,-99.99,,2013-06-27 20:36:00,
2013-06-27 15:45:00,87.0,64.0,-100.00,NNW,330,15.0,22.0,47,0.00,,,-99.99,,2013-06-27 20:45:00,
2013-06-27 15:54:00,86.0,63.0,-100.00,NW,320,15.0,25.0,47,0.00,,,-99.99,,2013-06-27 20:54:00,
2013-06-27 16:05:00,85.0,63.0,-100.00,NNW,335,17.0,24.0,48,0.00,,,-99.99,,2013-06-27 21:05:00,
2013-06-27 16:13:00,86.0,65.0,-100.00,NNW,330,15.0,20.0,49,0.00,,,-99.99,,2013-06-27 21:13:00,
2013-06-27 16:24:00,85.0,64.0,-100.00,NW,325,16.0,26.0,49,0.00,,,-99.99,,2013-06-27 21:24:00,
2013-06-27 16:36:00,86.0,64.0,-100.00,NW,315,14.0,22.0,49,0.00,,,-99.99,,2013-06-27 21:36:00,
2013-06-27 16:45:00,85.0,63.0,-100.00,NNW,335,20.0,23.0,48,0.00,,,-99.99,,2013-06-27 21:45:00,
2013-06-27 16:53:00,85.0,63.0,-100.00,NNW,335,16.0,24.0,48,0.00,,,-99.99,,2013-06-27 21:53:00,
2013-06-27 17:06:00,85.0,64.0,-100.00,NW,310,15.0,22.0,49,0.00,,,-99.99,,2013-06-27 22:06:00,
2013-06-27 17:14:00,85.0,65.0,-100.00,NW,320,14.0,21.0,50,0.00,,,-99.99,,2013-06-27 22:14:00,
2013-06-27 17:23:00,85.0,64.0,-100.00,NW,320,11.0,22.0,50,0.00,,,-99.99,,2013-06-27 22:23:00,
2013-06-27 17:47:00,85.0,64.0,-100.00,NW,325,16.0,22.0,49,0.00,,,-99.99,,2013-06-27 22:47:00,
2013-06-27 18:05:00,85.0,64.0,-100.00,NNW,335,14.0,21.0,50,0.00,,,-99.99,,2013-06-27 23:05:00,
2013-06-27 18:15:00,85.0,63.0,-100.00,NNW,335,17.0,23.0,49,0.00,,,-99.99,,2013-06-27 23:15:00,
2013-06-27 18:25:00,84.0,64.0,-100.00,NW,325,16.0,21.0,49,0.00,,,-99.99,,2013-06-27 23:25:00,
2013-06-27 18:34:00,84.0,64.0,-100.00,NNW,340,16.0,24.0,50,0.00,,,-99.99,,2013-06-27 23:34:00,
2013-06-27 18:45:00,84.0,64.0,-100.00,NNW,330,16.0,21.0,50,0.00,,,-99.99,,2013-06-27 23:45:00,
2013-06-27 18:55:00,84.0,64.0,-100.00,NNW,335,15.0,20.0,51,0.00,,,-99.99,,2013-06-27 23:55:00,
2013-06-27 19:06:00,84.0,64.0,-100.00,NNW,335,14.0,21.0,51,0.00,,,-99.99,,2013-06-28 00:06:00,
2013-06-27 19:34:00,84.0,65.0,-100.00,NNW,330,12.0,17.0,52,0.00,,,-99.99,,2013-06-28 00:34:00,
2013-06-27 19:45:00,83.0,65.0,-100.00,North,350,12.0,18.0,53,0.00,,,-99.99,,2013-06-28 00:45:00,
2013-06-27 19:54:00,83.0,65.0,-100.00,NNW,335,13.0,17.0,54,0.00,,,-99.99,,2013-06-28 00:54:00,
2013-06-27 20:07:00,83.0,65.0,-100.00,NNW,335,10.0,16.0,54,0.00,,,-99.99,,2013-06-28 01:07:00,
2013-06-27 20:13:00,82.0,65.0,-100.00,NNW,335,10.0,14.0,57,0.00,,,-99.99,,2013-06-28 01:13:00,
2013-06-27 20:35:00,81.0,65.0,-100.00,NNW,340,9.0,14.0,59,0.00,,,-99.99,,2013-06-28 01:35:00,
2013-06-27 20:45:00,80.0,65.0,-100.00,North,350,9.0,12.0,59,0.00,,,-99.99,,2013-06-28 01:45:00,
2013-06-27 20:56:00,80.0,65.0,-100.00,NNW,345,8.0,13.0,60,0.00,,,-99.99,,2013-06-28 01:56:00,
2013-06-27 21:05:00,79.0,65.0,-100.00,NNW,340,8.0,11.0,62,0.00,,,-99.99,,2013-06-28 02:05:00,
2013-06-27 21:17:00,79.0,65.0,-100.00,North,350,7.0,10.0,64,0.00,,,-99.99,,2013-06-28 02:17:00,
2013-06-27 21:27:00,78.0,65.0,-100.00,NNW,340,6.0,9.0,65,0.00,,,-99.99,,2013-06-28 02:27:00,
2013-06-27 21:36:00,77.0,65.0,-100.00,NNW,340,6.0,9.0,66,0.00,,,-99.99,,2013-06-28 02:36:00,
2013-06-27 21:54:00,76.0,66.0,-100.00,NNW,335,6.0,8.0,70,0.00,,,-99.99,,2013-06-28 02:54:00,
2013-06-27 22:07:00,75.0,66.0,-100.00,NW,325,6.0,8.0,73,0.00,,,-99.99,,2013-06-28 03:07:00,
2013-06-27 22:14:00,74.0,66.0,-100.00,NNW,330,6.0,9.0,74,0.00,,,-99.99,,2013-06-28 03:14:00,
2013-06-27 22:26:00,74.0,65.0,-100.00,NW,310,6.0,9.0,74,0.00,,,-99.99,,2013-06-28 03:26:00,
2013-06-27 22:44:00,76.0,62.0,-100.00,NNW,335,9.0,16.0,62,0.00,,,-99.99,,2013-06-28 03:44:00,
2013-06-27 23:02:00,76.0,61.0,-100.00,North,350,10.0,14.0,61,0.00,,,-99.99,,2013-06-28 04:02:00,
2013-06-27 23:11:00,75.0,61.0,-100.00,NNW,345,9.0,12.0,61,0.00,,,-99.99,,2013-06-28 04:11:00,
2013-06-27 23:22:00,74.0,62.0,-100.00,NNW,345,8.0,11.0,64,0.00,,,-99.99,,2013-06-28 04:22:00,
2013-06-27 23:33:00,74.0,61.0,-100.00,NNW,335,9.0,11.0,64,0.00,,,-99.99,,2013-06-28 04:33:00,
2013-06-27 23:43:00,72.0,62.0,-100.00,NW,325,6.0,11.0,68,0.00,,,-99.99,,2013-06-28 04:43:00,